{"data":{"norad_id":53214,"intl_designator":"2022-084AB","name":"STARLINK-4353","alt_names":[],"object_type":"PAYLOAD","status":"ACTIVE","operator":null,"country":"US","launch_date":"2022-07-22","launch_site_code":"AFWTR","launch_vehicle":null,"mission":null,"orbit_class":"UNKNOWN","rcs_meters":null,"size_class":null,"mass_kg":null,"dimensions":null,"purposes":["comms"],"wikipedia_slug":null,"has_3d_model":false,"image_url":null,"decayed_at":null,"tle_current":{"epoch":"2026-05-25T02:23:03.924672Z","epoch_age_seconds":60384,"freshness":"FRESH","line1":"1 53214U 22084AB  26145.09935098 -.00009045  00000+0 -62279-3 0  9990","line2":"2 53214  97.4471 205.0237 0001234 110.5409 249.5951 15.05700519210807","mean_motion":15.05700519,"eccentricity":0.0001234,"inclination_deg":97.4471,"raan_deg":205.0237,"arg_perigee_deg":110.5409,"mean_anomaly_deg":249.5951,"bstar":-0.00062279,"rev_number":21080,"period_min":95.636548027251,"perigee_km":548.50134368744,"apogee_km":550.2110490083,"semimajor_km":6927.4931963479,"source":"CELESTRAK","updated_at":"2026-05-25T13:38:17.354715Z"}}}